| time (UTC) | temp C | wind direction | speed KPH | gust KPH | rain 1hr cm | rain 24hr cm | rain mn cm | humidity % | barometer mb |
| 20260508151605 | 11 | 9 | 1.6 | 6.4 | 0.00 | 0.00 | 0.00 | 65 | 1020.6 |
| 20260508150105 | 11 | 4 | 0.0 | 6.4 | 0.00 | 0.00 | 0.00 | 65 | 1020.4 |
| 20260508143027 | 8 | 312 | 0.0 | 4.8 | 0.00 | 0.00 | 0.00 | 67 | 1020.0 |
| 20260508141530 | 8 | 250 | 0.0 | 6.4 | 0.00 | 0.00 | 0.00 | 64 | 1020.0 |
| 20260508134531 | 6 | 240 | 3.2 | 9.7 | 0.00 | 0.00 | 0.00 | 64 | 1019.6 |
| 20260508130031 | 6 | 239 | 3.2 | 8.0 | 0.00 | 0.00 | 0.00 | 64 | 1019.2 |
| 20260508121530 | 6 | 236 | 1.6 | 6.4 | 0.00 | 0.00 | 0.00 | 63 | 1019.1 |
| 20260508114531 | 7 | 277 | 3.2 | 9.7 | 0.00 | 0.00 | 0.00 | 60 | 1019.1 |
| 20260508113031 | 6 | 277 | 4.8 | 8.0 | 0.00 | 0.00 | 0.00 | 63 | 1018.8 |
| 20260508111532 | 6 | 244 | 3.2 | 11.3 | 0.00 | 0.00 | 0.00 | 63 | 1018.8 |
| 20260508110030 | 6 | 241 | 4.8 | 9.7 | 0.00 | 0.00 | 0.00 | 63 | 1018.8 |
| 20260508104529 | 6 | 242 | 3.2 | 8.0 | 0.00 | 0.00 | 0.00 | 61 | 1018.8 |
| 20260508103030 | 6 | 231 | 4.8 | 9.7 | 0.00 | 0.00 | 0.00 | 59 | 1018.8 |
| 20260508101541 | 7 | 233 | 4.8 | 11.3 | 0.00 | 0.00 | 0.00 | 57 | 1018.8 |
| 20260508100029 | 7 | 238 | 3.2 | 8.0 | 0.00 | 0.00 | 0.00 | 57 | 1018.8 |
| 20260508094532 | 7 | 230 | 3.2 | 8.0 | 0.00 | 0.00 | 0.00 | 57 | 1018.8 |
| 20260508090145 | 7 | 242 | 1.6 | 6.4 | 0.00 | 0.00 | 0.00 | 56 | 1018.6 |
| 20260508084532 | 7 | 238 | 3.2 | 11.3 | 0.00 | 0.00 | 0.00 | 55 | 1018.6 |
| 20260508083032 | 7 | 242 | 3.2 | 9.7 | 0.00 | 0.00 | 0.00 | 55 | 1018.7 |
| 20260508081529 | 7 | 229 | 3.2 | 6.4 | 0.00 | 0.00 | 0.00 | 54 | 1018.7 |
| 20260508080106 | 8 | 233 | 3.2 | 8.0 | 0.00 | 0.00 | 0.00 | 52 | 1018.7 |
| 20260508073029 | 8 | 230 | 3.2 | 6.4 | 0.00 | 0.00 | 0.00 | 50 | 1018.6 |
| 20260508071531 | 8 | 227 | 3.2 | 6.4 | 0.00 | 0.00 | 0.00 | 49 | 1018.6 |
| 20260508070029 | 9 | 246 | 1.6 | 4.8 | 0.00 | 0.00 | 0.00 | 47 | 1018.6 |
| 20260508064531 | 10 | 247 | 3.2 | 8.0 | 0.00 | 0.00 | 0.00 | 45 | 1018.6 |
| 20260508063030 | 11 | 217 | 1.6 | 4.8 | 0.00 | 0.00 | 0.00 | 42 | 1018.6 |
| 20260508061606 | 13 | 241 | 1.6 | 8.0 | 0.00 | 0.00 | 0.00 | 40 | 1018.5 |
| 20260508060030 | 14 | 318 | 1.6 | 6.4 | 0.00 | 0.00 | 0.00 | 39 | 1018.4 |
| 20260508054532 | 14 | 14 | 0.0 | 9.7 | 0.00 | 0.00 | 0.00 | 39 | 1018.2 |
| 20260508053104 | 15 | 37 | 1.6 | 8.0 | 0.00 | 0.00 | 0.00 | 38 | 1018.1 |
| 20260508051528 | 15 | 31 | 3.2 | 12.9 | 0.00 | 0.00 | 0.00 | 36 | 1018.0 |
| 20260508050029 | 15 | 26 | 3.2 | 9.7 | 0.00 | 0.00 | 0.00 | 33 | 1018.1 |
| 20260508043030 | 15 | 20 | 0.0 | 12.9 | 0.00 | 0.00 | 0.00 | 31 | 1018.1 |
| 20260508041531 | 15 | 19 | 0.0 | 4.8 | 0.00 | 0.00 | 0.00 | 30 | 1018.0 |
| 20260508040147 | 15 | 310 | 0.0 | 4.8 | 0.00 | 0.00 | 0.00 | 27 | 1017.7 |
| 20260508033031 | 16 | 18 | 3.2 | 12.9 | 0.00 | 0.00 | 0.00 | 24 | 1017.3 |
| 20260508030033 | 17 | 26 | 1.6 | 17.7 | 0.00 | 0.00 | 0.00 | 23 | 1017.3 |
| 20260508024530 | 19 | 34 | 3.2 | 11.3 | 0.00 | 0.00 | 0.00 | 22 | 1017.1 |
| 20260508021608 | 20 | 46 | 3.2 | 8.0 | 0.00 | 0.00 | 0.00 | 22 | 1016.9 |
| 20260508020028 | 20 | 40 | 3.2 | 9.7 | 0.00 | 0.00 | 0.00 | 22 | 1017.0 |
| 20260508014532 | 20 | 36 | 3.2 | 9.7 | 0.00 | 0.00 | 0.00 | 22 | 1017.1 |
| 20260508011529 | 21 | 36 | 3.2 | 19.3 | 0.00 | 0.00 | 0.00 | 22 | 1017.3 |
| 20260508010033 | 21 | 37 | 3.2 | 9.7 | 0.00 | 0.00 | 0.00 | 22 | 1017.3 |
| 20260508004528 | 22 | 48 | 4.8 | 14.5 | 0.00 | 0.00 | 0.00 | 22 | 1017.3 |
| 20260508003028 | 22 | 49 | 3.2 | 12.9 | 0.00 | 0.00 | 0.00 | 23 | 1017.2 |
| 20260508000034 | 21 | 41 | 3.2 | 11.3 | 0.00 | 0.00 | 0.00 | 26 | 1017.2 |
| 20260507234530 | 21 | 44 | 4.8 | 14.5 | 0.00 | 0.00 | 0.00 | 26 | 1016.9 |
| 20260507233028 | 22 | 58 | 4.8 | 12.9 | 0.00 | 0.00 | 0.00 | 24 | 1017.0 |
| 20260507231528 | 22 | 59 | 4.8 | 14.5 | 0.00 | 0.00 | 0.00 | 24 | 1017.1 |
| 20260507230029 | 22 | 46 | 4.8 | 12.9 | 0.00 | 0.00 | 0.00 | 25 | 1017.2 |
| 20260507221528 | 22 | 49 | 4.8 | 14.5 | 0.00 | 0.00 | 0.00 | 27 | 1017.7 |
| 20260507211541 | 22 | 48 | 3.2 | 9.7 | 0.00 | 0.00 | 0.00 | 31 | 1018.3 |
| 20260507210031 | 22 | 46 | 3.2 | 11.3 | 0.00 | 0.00 | 0.00 | 32 | 1018.5 |
| 20260507204607 | 21 | 52 | 3.2 | 9.7 | 0.00 | 0.00 | 0.00 | 32 | 1018.6 |
| 20260507203028 | 21 | 42 | 3.2 | 9.7 | 0.00 | 0.00 | 0.00 | 33 | 1018.7 |
| 20260507201532 | 20 | 49 | 3.2 | 9.7 | 0.00 | 0.00 | 0.00 | 34 | 1018.7 |
| 20260507200030 | 20 | 48 | 4.8 | 12.9 | 0.00 | 0.00 | 0.00 | 35 | 1018.8 |
| 20260507194528 | 21 | 55 | 3.2 | 11.3 | 0.00 | 0.00 | 0.00 | 36 | 1019.1 |
| 20260507193034 | 20 | 66 | 1.6 | 6.4 | 0.00 | 0.00 | 0.00 | 38 | 1019.5 |
| 20260507191530 | 19 | 47 | 3.2 | 11.3 | 0.00 | 0.00 | 0.00 | 40 | 1019.4 |
| 20260507190033 | 18 | 43 | 3.2 | 8.0 | 0.00 | 0.00 | 0.00 | 43 | 1019.4 |
| 20260507183040 | 18 | 50 | 3.2 | 9.7 | 0.00 | 0.00 | 0.00 | 46 | 1019.8 |
| 20260507181533 | 18 | 42 | 1.6 | 8.0 | 0.00 | 0.00 | 0.00 | 47 | 1020.0 |
| 20260507180030 | 17 | 40 | 3.2 | 9.7 | 0.00 | 0.00 | 0.00 | 49 | 1020.0 |
| 20260507174603 | 17 | 42 | 1.6 | 9.7 | 0.00 | 0.00 | 0.00 | 51 | 1020.3 |
| 20260507173028 | 16 | 42 | 3.2 | 12.9 | 0.00 | 0.00 | 0.00 | 54 | 1020.2 |
| 20260507171535 | 16 | 47 | 3.2 | 8.0 | 0.00 | 0.00 | 0.00 | 56 | 1020.2 |
| 20260507170033 | 16 | 57 | 3.2 | 8.0 | 0.00 | 0.00 | 0.00 | 57 | 1020.4 |
| 20260507163033 | 15 | 51 | 3.2 | 11.3 | 0.00 | 0.00 | 0.00 | 62 | 1020.5 |
| 20260507161531 | 15 | 30 | 3.2 | 9.7 | 0.00 | 0.00 | 0.00 | 65 | 1020.5 |
| 20260507154531 | 13 | 20 | 1.6 | 9.7 | 0.00 | 0.00 | 0.00 | 70 | 1020.8 |
| 20260507153031 | 12 | 8 | 1.6 | 8.0 | 0.00 | 0.00 | 0.00 | 72 | 1021.1 |